| time (UTC) | temp F | wind direction | speed knots | gust knots | rain 1hr in | rain 24hr in | rain mn in | humidity % | barometer mb |
| 20260503013650 | 65 | 349 | 1.7 | 2.6 | 0.00 | 0.00 | 0.00 | 36 | 1017.0 |
| 20260503013147 | 65 | 355 | 1.7 | 2.6 | 0.00 | 0.00 | 0.00 | 36 | 1016.9 |
| 20260503012644 | 65 | 358 | 4.3 | 5.2 | 0.00 | 0.00 | 0.00 | 35 | 1017.0 |
| 20260503012141 | 65 | 343 | 2.6 | 2.6 | 0.00 | 0.00 | 0.00 | 36 | 1017.0 |
| 20260503011638 | 65 | 338 | 2.6 | 2.6 | 0.00 | 0.00 | 0.00 | 35 | 1017.2 |
| 20260503011135 | 65 | 293 | 2.6 | 2.6 | 0.00 | 0.00 | 0.00 | 35 | 1017.4 |
| 20260503010631 | 65 | 338 | 0.9 | 0.9 | 0.00 | 0.00 | 0.00 | 35 | 1017.2 |
| 20260503010129 | 65 | 335 | 0.9 | 1.7 | 0.00 | 0.00 | 0.00 | 36 | 1016.9 |
| 20260503005625 | 65 | 337 | 0.9 | 0.9 | 0.00 | 0.00 | 0.00 | 35 | 1017.0 |
| 20260503005123 | 66 | 18 | 1.7 | 1.7 | 0.00 | 0.00 | 0.00 | 35 | 1017.4 |
| 20260503004619 | 66 | 343 | 1.7 | 1.7 | 0.00 | 0.00 | 0.00 | 35 | 1017.5 |
| 20260503004118 | 66 | 280 | 0.0 | 0.0 | 0.00 | 0.00 | 0.00 | 35 | 1017.3 |
| 20260503003614 | 66 | 261 | 0.0 | 0.0 | 0.00 | 0.00 | 0.00 | 35 | 1017.5 |
| 20260503003111 | 67 | 253 | 0.9 | 0.9 | 0.00 | 0.00 | 0.00 | 34 | 1017.3 |
| 20260503002608 | 67 | 287 | 0.0 | 0.9 | 0.00 | 0.00 | 0.00 | 34 | 1017.5 |
| 20260503002104 | 68 | 311 | 2.6 | 2.6 | 0.00 | 0.00 | 0.00 | 34 | 1017.6 |
| 20260503001601 | 68 | 336 | 1.7 | 1.7 | 0.00 | 0.00 | 0.00 | 35 | 1017.6 |
| 20260503001058 | 68 | 298 | 0.0 | 0.9 | 0.00 | 0.00 | 0.00 | 34 | 1017.6 |
| 20260503000555 | 68 | 291 | 3.5 | 3.5 | 0.00 | 0.00 | 0.00 | 34 | 1017.5 |
| 20260503000052 | 67 | 263 | 3.5 | 3.5 | 0.00 | 0.00 | 0.00 | 35 | 1017.7 |
| 20260502235548 | 68 | 289 | 5.2 | 6.1 | 0.00 | 0.00 | 0.00 | 34 | 1017.9 |
| 20260502235047 | 68 | 262 | 4.3 | 5.2 | 0.00 | 0.00 | 0.00 | 34 | 1017.9 |
| 20260502234543 | 68 | 237 | 7.0 | 8.7 | 0.00 | 0.00 | 0.00 | 36 | 1017.8 |
| 20260502234041 | 68 | 314 | 0.0 | 0.9 | 0.00 | 0.00 | 0.00 | 34 | 1018.0 |
| 20260502233540 | 68 | 281 | 0.0 | 0.0 | 0.00 | 0.00 | 0.00 | 34 | 1017.9 |
| 20260502233038 | 67 | 19 | 4.3 | 5.2 | 0.00 | 0.00 | 0.00 | 35 | 1017.9 |
| 20260502232534 | 68 | 307 | 3.5 | 5.2 | 0.00 | 0.00 | 0.00 | 36 | 1018.1 |
| 20260502232031 | 69 | 340 | 0.9 | 1.7 | 0.00 | 0.00 | 0.00 | 35 | 1018.1 |
| 20260502231528 | 67 | 202 | 1.7 | 1.7 | 0.00 | 0.00 | 0.00 | 36 | 1018.4 |
| 20260502231026 | 67 | 228 | 0.0 | 0.0 | 0.00 | 0.00 | 0.00 | 35 | 1018.4 |
| 20260502230524 | 66 | 347 | 1.7 | 2.6 | 0.00 | 0.00 | 0.00 | 37 | 1018.2 |
| 20260502230023 | 66 | 86 | 0.9 | 2.6 | 0.00 | 0.00 | 0.00 | 36 | 1018.4 |
| 20260502225522 | 67 | 37 | 4.3 | 6.1 | 0.00 | 0.00 | 0.00 | 37 | 1018.4 |
| 20260502225020 | 66 | 218 | 0.9 | 1.7 | 0.00 | 0.00 | 0.00 | 36 | 1018.2 |
| 20260502224516 | 67 | 200 | 1.7 | 2.6 | 0.00 | 0.00 | 0.00 | 35 | 1018.6 |
| 20260502224013 | 68 | 200 | 1.7 | 1.7 | 0.00 | 0.00 | 0.00 | 35 | 1018.6 |
| 20260502223511 | 66 | 101 | 0.9 | 0.9 | 0.00 | 0.00 | 0.00 | 36 | 1018.6 |
| 20260502223009 | 67 | 347 | 2.6 | 2.6 | 0.00 | 0.00 | 0.00 | 36 | 1018.6 |
| 20260502222506 | 67 | 310 | 5.2 | 6.1 | 0.00 | 0.00 | 0.00 | 36 | 1018.8 |
| 20260502222002 | 68 | 91 | 1.7 | 1.7 | 0.00 | 0.00 | 0.00 | 35 | 1018.8 |
| 20260502221458 | 67 | 307 | 1.7 | 1.7 | 0.00 | 0.00 | 0.00 | 36 | 1019.0 |
| 20260502220955 | 65 | 355 | 2.6 | 2.6 | 0.00 | 0.00 | 0.00 | 37 | 1019.0 |
| 20260502220451 | 66 | 349 | 6.1 | 7.0 | 0.00 | 0.00 | 0.00 | 37 | 1019.2 |
| 20260502215948 | 66 | 21 | 1.7 | 2.6 | 0.00 | 0.00 | 0.00 | 37 | 1019.1 |
| 20260502215445 | 67 | 25 | 3.5 | 5.2 | 0.00 | 0.00 | 0.00 | 37 | 1019.1 |
| 20260502214942 | 68 | 13 | 6.1 | 7.8 | 0.00 | 0.00 | 0.00 | 36 | 1019.1 |
| 20260502214439 | 68 | 26 | 5.2 | 6.1 | 0.00 | 0.00 | 0.00 | 36 | 1019.1 |
| 20260502213936 | 67 | 116 | 3.5 | 3.5 | 0.00 | 0.00 | 0.00 | 36 | 1019.2 |
| 20260502213433 | 68 | 86 | 3.5 | 5.2 | 0.00 | 0.00 | 0.00 | 37 | 1019.2 |
| 20260502212931 | 68 | 329 | 2.6 | 2.6 | 0.00 | 0.00 | 0.00 | 36 | 1019.5 |
| 20260502212430 | 66 | 239 | 0.0 | 0.0 | 0.00 | 0.00 | 0.00 | 38 | 1019.3 |
| 20260502211927 | 68 | 359 | 7.8 | 8.7 | 0.00 | 0.00 | 0.00 | 37 | 1019.5 |
| 20260502211422 | 68 | 18 | 2.6 | 2.6 | 0.00 | 0.00 | 0.00 | 37 | 1019.3 |
| 20260502210920 | 68 | 30 | 2.6 | 2.6 | 0.00 | 0.00 | 0.00 | 36 | 1019.3 |
| 20260502210417 | 67 | 28 | 5.2 | 7.0 | 0.00 | 0.00 | 0.00 | 37 | 1019.6 |
| 20260502205914 | 67 | 98 | 3.5 | 5.2 | 0.00 | 0.00 | 0.00 | 37 | 1019.7 |
| 20260502205410 | 68 | 28 | 3.5 | 5.2 | 0.00 | 0.00 | 0.00 | 37 | 1019.7 |
| 20260502204907 | 67 | 358 | 4.3 | 5.2 | 0.00 | 0.00 | 0.00 | 36 | 1019.8 |
| 20260502204404 | 65 | 298 | 1.7 | 2.6 | 0.00 | 0.00 | 0.00 | 38 | 1019.8 |
| 20260502203902 | 65 | 35 | 2.6 | 2.6 | 0.00 | 0.00 | 0.00 | 39 | 1019.9 |
| 20260502203359 | 64 | 65 | 2.6 | 2.6 | 0.00 | 0.00 | 0.00 | 38 | 1020.0 |
| 20260502202854 | 64 | 342 | 2.6 | 3.5 | 0.00 | 0.00 | 0.00 | 38 | 1020.0 |
| 20260502202352 | 64 | 1 | 7.0 | 7.8 | 0.00 | 0.00 | 0.00 | 38 | 1020.0 |
| 20260502201850 | 65 | 15 | 4.3 | 6.1 | 0.00 | 0.00 | 0.00 | 38 | 1020.0 |
| 20260502201346 | 65 | 349 | 7.0 | 7.8 | 0.00 | 0.00 | 0.00 | 37 | 1020.1 |
| 20260502200842 | 65 | 291 | 3.5 | 5.2 | 0.00 | 0.00 | 0.00 | 38 | 1020.1 |
| 20260502200338 | 66 | 330 | 7.8 | 7.8 | 0.00 | 0.00 | 0.00 | 37 | 1020.0 |
| 20260502195837 | 64 | 338 | 0.0 | 0.0 | 0.00 | 0.00 | 0.00 | 38 | 1020.1 |
| 20260502195333 | 65 | 17 | 6.1 | 7.0 | 0.00 | 0.00 | 0.00 | 37 | 1020.2 |
| 20260502194830 | 65 | 355 | 5.2 | 6.1 | 0.00 | 0.00 | 0.00 | 37 | 1020.2 |
| 20260502194327 | 65 | 319 | 3.5 | 3.5 | 0.00 | 0.00 | 0.00 | 37 | 1020.3 |
| 20260502193822 | 65 | 354 | 5.2 | 7.8 | 0.00 | 0.00 | 0.00 | 37 | 1020.3 |
| 20260502193320 | 64 | 350 | 2.6 | 2.6 | 0.00 | 0.00 | 0.00 | 38 | 1020.4 |
| 20260502192815 | 65 | 5 | 5.2 | 6.1 | 0.00 | 0.00 | 0.00 | 37 | 1020.4 |
| 20260502192313 | 66 | 359 | 7.0 | 7.8 | 0.00 | 0.00 | 0.00 | 37 | 1020.7 |
| 20260502191810 | 66 | 305 | 1.7 | 2.6 | 0.00 | 0.00 | 0.00 | 37 | 1020.6 |
| 20260502191308 | 65 | 46 | 1.7 | 1.7 | 0.00 | 0.00 | 0.00 | 37 | 1020.7 |
| 20260502190804 | 65 | 305 | 0.9 | 0.9 | 0.00 | 0.00 | 0.00 | 38 | 1020.8 |
| 20260502190302 | 67 | 24 | 5.2 | 6.1 | 0.00 | 0.00 | 0.00 | 37 | 1020.8 |
| 20260502185757 | 65 | 281 | 1.7 | 1.7 | 0.00 | 0.00 | 0.00 | 38 | 1020.7 |
| 20260502185253 | 66 | 7 | 7.0 | 8.7 | 0.00 | 0.00 | 0.00 | 36 | 1020.8 |
| 20260502184750 | 65 | 34 | 0.9 | 1.7 | 0.00 | 0.00 | 0.00 | 37 | 1020.9 |
| 20260502184246 | 66 | 354 | 0.0 | 0.0 | 0.00 | 0.00 | 0.00 | 37 | 1021.0 |
| 20260502183743 | 66 | 69 | 3.5 | 5.2 | 0.00 | 0.00 | 0.00 | 37 | 1021.0 |
| 20260502183239 | 64 | 256 | 0.0 | 0.0 | 0.00 | 0.00 | 0.00 | 39 | 1021.1 |
| 20260502182734 | 64 | 357 | 3.5 | 5.2 | 0.00 | 0.00 | 0.00 | 39 | 1021.0 |
| 20260502182230 | 65 | 0 | 0.9 | 0.9 | 0.00 | 0.00 | 0.00 | 39 | 1021.2 |
| 20260502181726 | 64 | 65 | 2.6 | 3.5 | 0.00 | 0.00 | 0.00 | 39 | 1021.1 |
| 20260502181226 | 63 | 282 | 0.0 | 0.0 | 0.00 | 0.00 | 0.00 | 40 | 1021.4 |
| 20260502180722 | 64 | 355 | 7.0 | 8.7 | 0.00 | 0.00 | 0.00 | 39 | 1021.4 |
| 20260502180220 | 64 | 44 | 4.3 | 7.0 | 0.00 | 0.00 | 0.00 | 40 | 1021.0 |
| 20260502170143 | 64 | 27 | 5.2 | 7.0 | 0.00 | 0.00 | 0.00 | 40 | 1021.5 |
| 20260502164124 | 62 | 68 | 8.7 | 11.3 | 0.00 | 0.00 | 0.00 | 40 | 1021.4 |
| 20260502163620 | 62 | 36 | 4.3 | 6.1 | 0.00 | 0.00 | 0.00 | 41 | 1021.4 |
| 20260502163117 | 62 | 34 | 7.0 | 7.8 | 0.00 | 0.00 | 0.00 | 40 | 1021.5 |
| 20260502162614 | 62 | 47 | 5.2 | 7.0 | 0.00 | 0.00 | 0.00 | 41 | 1021.9 |
| 20260502162111 | 62 | 38 | 7.0 | 7.8 | 0.00 | 0.00 | 0.00 | 41 | 1021.2 |
| 20260502161608 | 62 | 39 | 6.1 | 8.7 | 0.00 | 0.00 | 0.00 | 41 | 1021.3 |
| 20260502161105 | 61 | 42 | 3.5 | 5.2 | 0.00 | 0.00 | 0.00 | 41 | 1021.3 |
| 20260502160603 | 60 | 48 | 5.2 | 7.8 | 0.00 | 0.00 | 0.00 | 42 | 1021.5 |
| 20260502152011 | 58 | 57 | 7.8 | 8.7 | 0.00 | 0.00 | 0.00 | 43 | 1021.5 |
| 20260502151507 | 59 | 58 | 2.6 | 3.5 | 0.00 | 0.00 | 0.00 | 43 | 1021.3 |
| 20260502151004 | 59 | 119 | 6.1 | 8.7 | 0.00 | 0.00 | 0.00 | 43 | 1021.3 |
| 20260502150501 | 57 | 98 | 3.5 | 6.1 | 0.00 | 0.00 | 0.00 | 44 | 1021.1 |
| 20260502130346 | 48 | 11 | 6.1 | 7.0 | 0.00 | 0.00 | 0.00 | 54 | 1020.3 |
| 20260502123329 | 45 | 319 | 1.7 | 1.7 | 0.00 | 0.00 | 0.00 | 56 | 1019.8 |
| 20260502122826 | 45 | 354 | 3.5 | 3.5 | 0.00 | 0.00 | 0.00 | 56 | 1020.0 |
| 20260502122321 | 44 | 8 | 3.5 | 3.5 | 0.00 | 0.00 | 0.00 | 56 | 1019.7 |
| 20260502121821 | 43 | 8 | 5.2 | 6.1 | 0.00 | 0.00 | 0.00 | 57 | 1019.5 |
| 20260502121317 | 44 | 350 | 5.2 | 6.1 | 0.00 | 0.00 | 0.00 | 56 | 1019.9 |
| 20260502120814 | 43 | 354 | 4.3 | 6.1 | 0.00 | 0.00 | 0.00 | 56 | 1019.7 |
| 20260502120311 | 43 | 322 | 4.3 | 5.2 | 0.00 | 0.00 | 0.00 | 56 | 1019.7 |
| 20260502115808 | 43 | 328 | 5.2 | 5.2 | 0.00 | 0.00 | 0.00 | 56 | 1019.6 |
| 20260502115306 | 43 | 339 | 3.5 | 3.5 | 0.00 | 0.00 | 0.00 | 57 | 1019.2 |
| 20260502114801 | 43 | 318 | 5.2 | 6.1 | 0.00 | 0.00 | 0.00 | 56 | 1019.1 |
| 20260502114258 | 42 | 312 | 3.5 | 5.2 | 0.00 | 0.00 | 0.00 | 58 | 1019.1 |
| 20260502113755 | 41 | 317 | 2.6 | 2.6 | 0.00 | 0.00 | 0.00 | 59 | 1019.2 |
| 20260502113253 | 41 | 300 | 3.5 | 3.5 | 0.00 | 0.00 | 0.00 | 59 | 1019.1 |
| 20260502112751 | 42 | 305 | 2.6 | 2.6 | 0.00 | 0.00 | 0.00 | 58 | 1019.0 |
| 20260502112248 | 42 | 296 | 2.6 | 2.6 | 0.00 | 0.00 | 0.00 | 57 | 1018.9 |
| 20260502111745 | 42 | 313 | 3.5 | 3.5 | 0.00 | 0.00 | 0.00 | 56 | 1018.9 |
| 20260502111243 | 43 | 291 | 2.6 | 2.6 | 0.00 | 0.00 | 0.00 | 56 | 1018.8 |
| 20260502110740 | 44 | 283 | 2.6 | 2.6 | 0.00 | 0.00 | 0.00 | 55 | 1018.9 |
| 20260502110238 | 43 | 292 | 2.6 | 2.6 | 0.00 | 0.00 | 0.00 | 55 | 1018.8 |
| 20260502105736 | 43 | 282 | 5.2 | 6.1 | 0.00 | 0.00 | 0.00 | 55 | 1018.9 |
| 20260502105232 | 44 | 270 | 6.1 | 7.0 | 0.00 | 0.00 | 0.00 | 54 | 1018.7 |
| 20260502104730 | 44 | 281 | 5.2 | 6.1 | 0.00 | 0.00 | 0.00 | 53 | 1018.7 |
| 20260502104227 | 45 | 293 | 3.5 | 3.5 | 0.00 | 0.00 | 0.00 | 52 | 1018.6 |
| 20260502103725 | 46 | 289 | 4.3 | 5.2 | 0.00 | 0.00 | 0.00 | 51 | 1018.4 |
| 20260502103222 | 46 | 311 | 5.2 | 6.1 | 0.00 | 0.00 | 0.00 | 51 | 1018.6 |
| 20260502102719 | 47 | 283 | 5.2 | 6.1 | 0.00 | 0.00 | 0.00 | 50 | 1018.2 |
| 20260502102215 | 47 | 293 | 5.2 | 7.0 | 0.00 | 0.00 | 0.00 | 50 | 1018.1 |
| 20260502101713 | 46 | 307 | 4.3 | 6.1 | 0.00 | 0.00 | 0.00 | 51 | 1018.1 |
| 20260502101212 | 47 | 296 | 4.3 | 5.2 | 0.00 | 0.00 | 0.00 | 50 | 1018.2 |
| 20260502100709 | 46 | 285 | 5.2 | 6.1 | 0.00 | 0.00 | 0.00 | 50 | 1018.1 |
| 20260502100208 | 46 | 294 | 6.1 | 6.1 | 0.00 | 0.00 | 0.00 | 50 | 1018.2 |
| 20260502091142 | 46 | 268 | 7.0 | 7.0 | 0.00 | 0.00 | 0.00 | 48 | 1017.5 |
| 20260502090638 | 46 | 263 | 7.0 | 7.8 | 0.00 | 0.00 | 0.00 | 49 | 1017.4 |
| 20260502090136 | 45 | 260 | 6.1 | 6.1 | 0.00 | 0.00 | 0.00 | 49 | 1017.3 |
| 20260502071533 | 48 | 264 | 6.1 | 7.0 | 0.00 | 0.00 | 0.00 | 43 | 1017.0 |
| 20260502071031 | 48 | 266 | 6.1 | 7.0 | 0.00 | 0.00 | 0.00 | 43 | 1017.3 |
| 20260502070529 | 48 | 272 | 6.1 | 6.1 | 0.00 | 0.00 | 0.00 | 43 | 1017.0 |
| 20260502070027 | 49 | 270 | 5.2 | 6.1 | 0.00 | 0.00 | 0.00 | 42 | 1017.0 |
| 20260502065526 | 50 | 275 | 6.1 | 7.0 | 0.00 | 0.00 | 0.00 | 41 | 1017.4 |
| 20260502065023 | 50 | 273 | 6.1 | 7.0 | 0.00 | 0.00 | 0.00 | 41 | 1017.2 |
| 20260502064521 | 50 | 276 | 6.1 | 6.1 | 0.00 | 0.00 | 0.00 | 40 | 1017.3 |
| 20260502064018 | 50 | 280 | 5.2 | 6.1 | 0.00 | 0.00 | 0.00 | 41 | 1017.3 |
| 20260502063515 | 50 | 277 | 5.2 | 6.1 | 0.00 | 0.00 | 0.00 | 40 | 1017.3 |
| 20260502063013 | 50 | 286 | 4.3 | 5.2 | 0.00 | 0.00 | 0.00 | 41 | 1017.2 |
| 20260502062509 | 49 | 276 | 6.1 | 7.0 | 0.00 | 0.00 | 0.00 | 41 | 1017.4 |
| 20260502062009 | 48 | 308 | 5.2 | 5.2 | 0.00 | 0.00 | 0.00 | 42 | 1017.3 |
| 20260502061506 | 49 | 280 | 2.6 | 3.5 | 0.00 | 0.00 | 0.00 | 41 | 1017.3 |
| 20260502061003 | 49 | 281 | 1.7 | 1.7 | 0.00 | 0.00 | 0.00 | 41 | 1017.4 |
| 20260502060457 | 51 | 292 | 3.5 | 3.5 | 0.00 | 0.00 | 0.00 | 39 | 1016.9 |
| 20260502055954 | 51 | 268 | 3.5 | 3.5 | 0.00 | 0.00 | 0.00 | 39 | 1017.0 |
| 20260502055452 | 49 | 272 | 3.5 | 3.5 | 0.00 | 0.00 | 0.00 | 39 | 1016.9 |
| 20260502054946 | 50 | 261 | 4.3 | 5.2 | 0.00 | 0.00 | 0.00 | 39 | 1016.8 |
| 20260502054444 | 50 | 271 | 3.5 | 3.5 | 0.00 | 0.00 | 0.00 | 39 | 1016.9 |
| 20260502053941 | 51 | 267 | 4.3 | 5.2 | 0.00 | 0.00 | 0.00 | 38 | 1016.7 |
| 20260502053437 | 50 | 275 | 4.3 | 5.2 | 0.00 | 0.00 | 0.00 | 39 | 1016.9 |
| 20260502052935 | 50 | 272 | 3.5 | 3.5 | 0.00 | 0.00 | 0.00 | 38 | 1016.8 |
| 20260502052433 | 51 | 277 | 3.5 | 3.5 | 0.00 | 0.00 | 0.00 | 38 | 1016.8 |
| 20260502051932 | 52 | 276 | 4.3 | 5.2 | 0.00 | 0.00 | 0.00 | 37 | 1017.0 |
| 20260502051429 | 51 | 271 | 4.3 | 5.2 | 0.00 | 0.00 | 0.00 | 37 | 1016.9 |
| 20260502050926 | 53 | 271 | 4.3 | 5.2 | 0.00 | 0.00 | 0.00 | 37 | 1016.7 |
| 20260502050423 | 53 | 267 | 4.3 | 5.2 | 0.00 | 0.00 | 0.00 | 35 | 1017.0 |
| 20260502045920 | 53 | 264 | 6.1 | 6.1 | 0.00 | 0.00 | 0.00 | 35 | 1016.8 |
| 20260502045416 | 52 | 267 | 5.2 | 5.2 | 0.00 | 0.00 | 0.00 | 36 | 1016.8 |
| 20260502044914 | 52 | 264 | 3.5 | 3.5 | 0.00 | 0.00 | 0.00 | 37 | 1016.6 |
| 20260502044409 | 52 | 255 | 4.3 | 5.2 | 0.00 | 0.00 | 0.00 | 37 | 1016.8 |
| 20260502043906 | 53 | 258 | 4.3 | 5.2 | 0.00 | 0.00 | 0.00 | 36 | 1016.6 |
| 20260502043404 | 53 | 252 | 4.3 | 5.2 | 0.00 | 0.00 | 0.00 | 36 | 1016.7 |
| 20260502042903 | 53 | 251 | 4.3 | 5.2 | 0.00 | 0.00 | 0.00 | 36 | 1016.8 |
| 20260502042401 | 53 | 253 | 4.3 | 5.2 | 0.00 | 0.00 | 0.00 | 35 | 1016.7 |
| 20260502041858 | 54 | 261 | 4.3 | 5.2 | 0.00 | 0.00 | 0.00 | 35 | 1016.5 |
| 20260502041355 | 54 | 262 | 3.5 | 3.5 | 0.00 | 0.00 | 0.00 | 35 | 1016.6 |
| 20260502040853 | 56 | 273 | 3.5 | 3.5 | 0.00 | 0.00 | 0.00 | 34 | 1016.7 |
| 20260502040349 | 57 | 277 | 4.3 | 5.2 | 0.00 | 0.00 | 0.00 | 33 | 1016.7 |
| 20260502035845 | 56 | 281 | 4.3 | 5.2 | 0.00 | 0.00 | 0.00 | 34 | 1016.6 |
| 20260502035342 | 57 | 279 | 3.5 | 3.5 | 0.00 | 0.00 | 0.00 | 33 | 1016.6 |
| 20260502034839 | 58 | 284 | 2.6 | 2.6 | 0.00 | 0.00 | 0.00 | 33 | 1016.6 |
| 20260502034338 | 58 | 273 | 3.5 | 3.5 | 0.00 | 0.00 | 0.00 | 32 | 1016.8 |
| 20260502033836 | 60 | 268 | 4.3 | 5.2 | 0.00 | 0.00 | 0.00 | 30 | 1016.5 |
| 20260502033333 | 59 | 284 | 3.5 | 5.2 | 0.00 | 0.00 | 0.00 | 31 | 1016.4 |
| 20260502032830 | 60 | 299 | 3.5 | 3.5 | 0.00 | 0.00 | 0.00 | 31 | 1016.7 |
| 20260502032326 | 61 | 276 | 4.3 | 5.2 | 0.00 | 0.00 | 0.00 | 29 | 1016.4 |
| 20260502031824 | 59 | 281 | 3.5 | 3.5 | 0.00 | 0.00 | 0.00 | 30 | 1016.3 |
| 20260502031322 | 61 | 283 | 2.6 | 2.6 | 0.00 | 0.00 | 0.00 | 30 | 1016.3 |
| 20260502030820 | 63 | 253 | 4.3 | 5.2 | 0.00 | 0.00 | 0.00 | 28 | 1016.2 |
| 20260502030318 | 64 | 254 | 4.3 | 5.2 | 0.00 | 0.00 | 0.00 | 27 | 1016.4 |
| 20260502025815 | 66 | 261 | 3.5 | 3.5 | 0.00 | 0.00 | 0.00 | 26 | 1016.1 |
| 20260502025313 | 66 | 258 | 3.5 | 3.5 | 0.00 | 0.00 | 0.00 | 26 | 1016.2 |
| 20260502024810 | 66 | 250 | 3.5 | 3.5 | 0.00 | 0.00 | 0.00 | 26 | 1016.1 |
| 20260502024308 | 66 | 253 | 3.5 | 3.5 | 0.00 | 0.00 | 0.00 | 26 | 1016.1 |
| 20260502023806 | 65 | 249 | 3.5 | 3.5 | 0.00 | 0.00 | 0.00 | 26 | 1016.1 |
| 20260502023303 | 65 | 249 | 3.5 | 3.5 | 0.00 | 0.00 | 0.00 | 26 | 1015.9 |
| 20260502022800 | 66 | 250 | 3.5 | 3.5 | 0.00 | 0.00 | 0.00 | 25 | 1015.7 |
| 20260502022257 | 65 | 260 | 3.5 | 3.5 | 0.00 | 0.00 | 0.00 | 26 | 1015.9 |
| 20260502021754 | 66 | 262 | 4.3 | 5.2 | 0.00 | 0.00 | 0.00 | 25 | 1015.7 |
| 20260502021251 | 67 | 254 | 3.5 | 3.5 | 0.00 | 0.00 | 0.00 | 26 | 1016.1 |
| 20260502020748 | 67 | 259 | 3.5 | 3.5 | 0.00 | 0.00 | 0.00 | 26 | 1015.8 |
| 20260502020246 | 67 | 273 | 2.6 | 2.6 | 0.00 | 0.00 | 0.00 | 26 | 1015.8 |
| 20260502015743 | 67 | 251 | 3.5 | 3.5 | 0.00 | 0.00 | 0.00 | 25 | 1015.9 |
| 20260502015239 | 68 | 275 | 2.6 | 2.6 | 0.00 | 0.00 | 0.00 | 25 | 1015.8 |
| 20260502014737 | 68 | 286 | 2.6 | 2.6 | 0.00 | 0.00 | 0.00 | 25 | 1015.8 |
| 20260502014233 | 70 | 273 | 4.3 | 5.2 | 0.00 | 0.00 | 0.00 | 24 | 1015.8 |